Погода Ивано-Франковск

Погода Ивано-Франковск : погода сейчас, прогноз погоды и архив. Всё, что Вы хотите узнать о погоде Ивано-Франковск!

Поиск расширенной информации на нашем сайте:

Другие новости

Новости СМИ2

Главная страница сайта

Новости сайта

03.07.2017

Напоминаем, что на нашем специализированном сайте Метеоцентр.Азия вы можете получить высокодетализированные автоматические прогнозы погоды по пунктам России, СНГ и мира в авиационном формате (включающие направление и скорость ветра, видимость, явления погоды, количество и форму облачности, нижнюю и верхнюю границу облачности).

Рекомендуем: Качественный синускан в наличии stimul20.ru.

Погода Ивано-Франковск - сегодня

Время (UTC), дата Ветер
(°,м/с) 
Видим.   Явления Облачность Т
(°С)
Тd
(°С)
f(%) Тe
(°С)
Pmin
(гПа)
dP
(гПа)
Po
(мм)
O2
(г/м3)
Тmin Tmax R s Состояние
почвы
15 17.08.18 160 (Ю) 30000 м  гроза без осадков{ливн. осадки}  8/8 1000 м кучево-дожд. 
[Cb cap]
+25.4 +18.4 65 +41  1015.2  -0.8  738  268           
18 17.08.18 110 (В) 10 км  {гроза, ливн. осадки}  8/5 800 м средняя 
[Sc|Ac trans]
+19.2 +16.7 85 +32  1016.3  0.3  738  274    +26.6  0.1     
21 17.08.18 тихо ()   10 км  зарница  6/4 600 м средняя 
[Sc|Ac trans]
+17.2 +16.9 98 +30  1017.4  0.9  739  276           
03 18.08.18 220 (ЮЗ) 10 км    3/0 средняя 
[Ac trans]
+12.8 +12.4 97 +18  1018.1  0.2  739  282           
06 18.08.18 020 (С) 3000 м  дымка  6/0 средняя 
[Ac trans]
+17.6 +17.4 99 +33  1018.3  0.8  739  276  +12.5         
09 18.08.18 320 (СЗ) 20000 м    3/3 1500 м 
[Cu hum]
+25.1 +17.7 64 +39  1017.8  0.3  740  269           
12 18.08.18 010 (С) 20000 м    3/3 1500 м 
[Cu hum]
+27.4 +17.3 54 +41  1017.2  -0.3  739  267           
15 18.08.18 280 (З) 20000 м    3/3 1500 м 
[Cu hum]
+27.4 +17.3 54 +41  1016.9  -0.3  739  267           
18 18.08.18 310 (СЗ) 10 км  зарница  6/4 1380 м средняя 
[Sc|Ac trans]
+21.4 +18.4 83 +37  1018.7  1.1  740  272    +27.9       
21 18.08.18 260 (З) 10 км    4/4 1380 м 
[Sc]
+18.7 +17.9 95 +35  1019.6  0.6  740  275           
00 19.08.18 тихо ()   10 км    3/0 средняя 
[Ac trans]
+15.6 +15.1 97 +25  1020.4  0.4  741  279           
03 19.08.18 250 (З) 10 км  местами туман поземный  3/0 средняя 
[Ac trans]
+14.1 +13.6 97 +22  1020.5  -0.1  741  281           
06 19.08.18 тихо ()   20000 м    3/0 средняя 
[Ac trans]
+20.4 +17.3 82 +34  1020.7  0.9  741  274  +13.9         
09 19.08.18 020 (С) 20000 м    4/4 1380 м 
[Cu hum]
+25.4 +17.1 60 +38  1020.2  0.1  741  270           
12 19.08.18 010 (С) 20000 м    6/6 1380 м 
[Cu hum]
+27.3 +16.4 51 +39  1019  -1  741  268           
15 19.08.18 050 (СВ) 20000 м    6/6 1380 м 
[Cu med, cong]
+27.4 +15.8 49 +38  1018  -1  740  268           
18 19.08.18 290 (З) 20000 м    4/0 средняя, верхняя 
[Ac trans|Ci fib]
+21.5 +17.5 78 +35  1019  0.4  740  272    +27.9       
21 19.08.18 тихо ()   10 км    3/0 верхняя 
[Ci fib]
+16.5 +16.2 98 +28  1019.6  740  278           
03 20.08.18 тихо ()   1100 м  туман  3/0 верхняя 
[Ci fib]
+12.7 +12.7 100 +18  1019.2  -0.1  740  282           
06 20.08.18 тихо ()   10 км  {туман}  ясно 
+19 +17.4 90 +33  1018.3  -0.1  739  275  +12.6         
09 20.08.18 130 (ЮВ) 50000 м    3/3 1500 м 
[Cu hum]
+26.1 +17 57 +39  1017  -0.5  739  268           
12 20.08.18 110 (В) 50000 м    3/3 1500 м 
[Cu hum]
+29.1 +14.3 40 +37  1015.3  -1.4  738  266           
15 20.08.18 150 (ЮВ) 50000 м    3/3 1500 м 
[Cu hum]
+29.4 +12.8 36 +35  1014.3  -1  737  266           
18 20.08.18 200 (Ю) 10 км    3/0 средняя 
[Ac trans]
+20.9 +18.2 85 +36  1015.1  737  272    +29.9       
21 20.08.18 тихо ()   10 км    ясно 
+17 +16.5 97 +29  1015.8  0.2  737  276           
Время (UTC), дата Ветер
(°,м/с) 
Видим.   Явления Облачность Т
(°С)
Тd
(°С)
f(%) Тe
(°С)
Pmin
(гПа)
dP
(гПа)
Po
(мм)
O2
(г/м3)
Тmin Tmax R s Состояние
почвы

Для получения пояснительной информации подведите курсор к названию столбца.

ПОГОДА Ивано-Франковск - архив

Всё, что Вы хотите узнать о погоде Ивано-Франковск - удобно и подробно!

Выберите нужную дату (начиная с 1 января 2015* года) и нажмите кнопку "Найти".
Будут отображены архивные сводки погоды по пункту Ивано-Франковск, начиная с указанной даты.


Отображать данные в формате CSV (для использования в таблицах Excel)


Внимание! Наш архив погоды предназначен исключительно для личного некоммерческого использования в познавательных целях. Если Вам необходимы официальные справки о состоянии погоды (для производственных, юридических, коммерческих и т.п. целей), обращайтесь в органы Росгидромета.

*Примечание: данная дата относится к архиву по метеостанциям СССР (Россия, СНГ, Балтия).
Архив по метеостанциям Зарубежной Европы и Азии (кроме Китая) хранится 10 дней, по другим регионам земного шара (Китай, Африка, Америка, Австралия, Океания) - 1 день.

Ивано-Франковск - район местоположения метеостанции


Название, широта, долгота, высота метеостанции:
Ивано-Франковск 49°ш. 24.4°д. 280 м над ур. моря [Украина]

Дополнительная информация

В oтличие oт бoльшинства пoгoдных сайтoв мы публикуем пoдрoбную метеoинфoрмацию в детальнoм прoфессиoнальнoм фoрмате.

Характеристики температуры и влажнoсти вoздуха измеряются на высoте 2 м в тени вдали oт зданий и деревьев.
Скoрoсть ветра измеряется на высoте 10 м (на урoвне рoста челoвека скoрoсть ветра ниже в 1.5-2 раза). Если метеoстанция нахoдится в гoрoде или в лесу, тo скoрoсть ветра занижена на 2-4 м/с пo сравнению с oткрытым местoм. Скoрoсть ветра над акватoриями крупных рек и oзёр, а также на вершинах хoлмoв на 2-5 м/с выше, чем в oбычных услoвиях.
Атмoсфернoе давление в разных тoчках местнoсти мoжет значительнo oтличаться oт давления на метеoстанции, в зависимoсти oт услoвий рельефа (при пoдъёме на 10 м давление пoнижается примернo на 1 мм рт.ст.).